Location: Saint-Usage
(47.1052°N, 5.2587°E)
Time: 08:35:29
(UTC+01:00)

NOAA 19 - Pass Details

Date: 03 December 2021
Orbit: 841 x 860 km, 99.2° (Epoch: 26 January)

Event Time Altitude Azimuth Distance (km) Brightness Sun altitude
Rises 06:35:54 0° 36° (NE) 3,430 8.6 -14.9°
Reaches altitude 10° 06:41:09 10° 78° (ENE) 2,491 8.6 -14.0°
Maximum altitude 06:41:50 10° 85° (E) 2,475 8.8 -13.9°
Drops below altitude 10° 06:42:31 10° 92° (E) 2,490 8.9 -13.8°
Sets 06:47:43 0° 134° (SE) 3,422 9.6 -12.9°
